Location: Castle Hill Houses
(40.8186°N, 73.8497°W)
Time: 02:45:03
(UTC+00:00)

METEOR-M - Pass Details

Date: 26 January 2020
Orbit: 816 x 820 km, 98.4° (Epoch: 22 February)

Event Time Altitude Azimuth Distance (km) Brightness Sun altitude
Rises 10:38:45 0° 8° (N) 3,358 7.3 -17.5°
Reaches altitude 10° 10:41:08 10° 4° (N) 2,421 6.5 -17.1°
Maximum altitude 10:46:21 55° 288° (WNW) 975 4.2 -16.1°
Drops below altitude 10° 10:51:32 10° 212° (SSW) 2,402 6.4 -15.2°
Sets 10:53:54 0° 208° (SSW) 3,330 7.1 -14.7°
